Simultaneous Nadir Overpasses (SNOs) Predictions

Prediction of SNOs between LANDSAT-8 and METOP-A Satellite Orbit:

Table of predicted SNOs for the next 14.0 days since TLE Epoch: 4/14/2018
Index Date (LANDSAT-8) Time (LANDSAT-8) Lat,Lon (LANDSAT-8) SZA (LANDSAT-8 ) Date (METOP-A) Time (METOP-A) Lat,Lon (METOP-A) SZA (METOP-A ) Distance(km) Time Diff (sec)
1 04/14/2018 21:49:39 81.33,-104.78 74.00 04/14/2018 21:48:59 81.32,-104.77 73.98 0.66 40
2 04/14/2018 22:39:06 -81.32, 62.75 106.03 04/14/2018 22:39:40 -81.32, 62.60 106.03 2.61 34
3 04/17/2018 17:23:53 81.31, -38.57 73.00 04/17/2018 17:23:18 81.31, -38.71 72.97 2.31 35
4 04/17/2018 18:13:19 -81.33, 129.37 106.98 04/17/2018 18:13:57 -81.33, 129.48 106.95 1.90 38
5 04/20/2018 12:58:05 81.32, 27.99 72.06 04/20/2018 12:57:34 81.32, 28.12 72.06 2.32 31
6 04/20/2018 13:47:31 -81.34,-164.05 107.91 04/20/2018 13:48:14 -81.33,-164.05 107.90 0.57 43
7 04/23/2018 08:32:18 81.33, 94.51 71.14 04/23/2018 08:31:52 81.32, 94.54 71.13 0.61 26
8 04/23/2018 09:21:45 -81.32, -97.88 108.88 04/23/2018 09:22:33 -81.33, -97.99 108.87 1.88 48
9 04/26/2018 04:06:31 81.33, 161.01 70.24 04/26/2018 04:06:10 81.32, 160.95 70.23 1.15 21




NCC Satellite Simultaneous Nadir Overpasses (SNOs) Prediction Service
